Station Historical Data
Daily Summary for June 15, 2012 Units:  Metric    English   Both
« Previous Day
Next Day »
Daily Weekly Monthly Yearly Custom
  High: Low: Average:
Temperature: 30.9 °C 20.3 °C 25.3 °C
Dew Point: 21.6 °C 19.2 °C 20.3 °C
Humidity: 93% 52% 75%
Wind Speed: 25.7km/h 0km/h 7.2km/h
Wind Gust: 25.7km/h - -
Wind- - SE
Pressure: 1018.2 hPa 1013.4 hPa -
Precipitation: 0 mm    
Historical Graphs
 
 
Tabular Data for June 15, 2012
Time Temperature Dew Point Pressure Wind Wind Speed Wind Gust Humidity Rainfall Rate (Hourly) Conditions
00:00 23.6 °C 20.2 °C 1014.8 hPa SE 1.6 km/h 3.2 km/h 81% 0 mm
00:05 23.5 °C 20.2 °C 1014.4 hPa ESE 3.2 km/h 3.2 km/h 82% 0 mm
00:10 23.4 °C 20.2 °C 1014.4 hPa East 3.2 km/h 3.2 km/h 82% 0 mm
00:16 23.3 °C 20.1 °C 1014.4 hPa ESE 1.6 km/h 3.2 km/h 82% 0 mm
00:21 23.3 °C 20.2 °C 1014.4 hPa East 3.2 km/h 3.2 km/h 83% 0 mm
00:26 23.3 °C 20.2 °C 1014.4 hPa ESE 1.6 km/h 3.2 km/h 83% 0 mm
00:31 23.3 °C 20.5 °C 1014.4 hPa ESE 3.2 km/h 3.2 km/h 84% 0 mm
00:36 23.4 °C 20.6 °C 1014.4 hPa ESE 3.2 km/h 3.2 km/h 84% 0 mm
00:41 23.4 °C 20.3 °C 1014.4 hPa SE 3.2 km/h 3.2 km/h 83% 0 mm
00:46 23.3 °C 20.4 °C 1014.4 hPa SE 3.2 km/h 4.8 km/h 84% 0 mm
00:51 23.2 °C 20.4 °C 1014.4 hPa SE 3.2 km/h 3.2 km/h 84% 0 mm
00:56 23.1 °C 20.4 °C 1014.4 hPa SSE 1.6 km/h 3.2 km/h 85% 0 mm
01:01 23 °C 20.3 °C 1014.1 hPa SE 1.6 km/h 3.2 km/h 85% 0 mm
01:06 23 °C 20.6 °C 1014.1 hPa SE 3.2 km/h 6.4 km/h 86% 0 mm
01:11 23 °C 20.7 °C 1014.1 hPa SE 3.2 km/h 3.2 km/h 87% 0 mm
01:16 22.9 °C 20.5 °C 1013.8 hPa SSE 3.2 km/h 3.2 km/h 86% 0 mm
01:21 22.8 °C 20.5 °C 1013.8 hPa SE 3.2 km/h 3.2 km/h 87% 0 mm
01:26 22.8 °C 20.7 °C 1013.8 hPa SE 4.8 km/h 6.4 km/h 88% 0 mm
01:31 22.9 °C 20.7 °C 1013.8 hPa East 3.2 km/h 6.4 km/h 87% 0 mm
01:36 22.8 °C 20.5 °C 1013.8 hPa ESE 1.6 km/h 3.2 km/h 87% 0 mm
01:41 22.7 °C 20.6 °C 1013.8 hPa ESE 1.6 km/h 3.2 km/h 88% 0 mm
01:46 22.6 °C 20.4 °C 1013.8 hPa SE 1.6 km/h 3.2 km/h 88% 0 mm
01:51 22.3 °C 20.4 °C 1013.8 hPa SE 4.8 km/h 4.8 km/h 89% 0 mm
01:56 22.1 °C 20.4 °C 1013.8 hPa SE 1.6 km/h 6.4 km/h 90% 0 mm
02:01 22 °C 20.3 °C 1013.8 hPa SE 3.2 km/h 4.8 km/h 90% 0 mm
02:06 21.9 °C 20.2 °C 1013.8 hPa ESE 4.8 km/h 4.8 km/h 90% 0 mm
02:11 21.9 °C 20.4 °C 1013.4 hPa ESE 3.2 km/h 3.2 km/h 91% 0 mm
02:16 21.9 °C 20.3 °C 1013.4 hPa SE 4.8 km/h 4.8 km/h 91% 0 mm
02:21 22 °C 20.4 °C 1013.4 hPa ESE 4.8 km/h 6.4 km/h 91% 0 mm
02:26 22 °C 20.4 °C 1013.8 hPa SE 3.2 km/h 8 km/h 91% 0 mm
02:31 22 °C 20.4 °C 1013.4 hPa SE 6.4 km/h 6.4 km/h 91% 0 mm
02:36 22 °C 20.4 °C 1013.4 hPa ESE 4.8 km/h 8 km/h 91% 0 mm
02:41 21.9 °C 20.3 °C 1013.4 hPa ESE 4.8 km/h 8 km/h 91% 0 mm
02:46 21.9 °C 20.3 °C 1013.8 hPa ESE 3.2 km/h 6.4 km/h 91% 0 mm
02:51 21.8 °C 20.2 °C 1013.8 hPa ESE 3.2 km/h 4.8 km/h 91% 0 mm
02:56 21.7 °C 20.1 °C 1013.8 hPa East 3.2 km/h 4.8 km/h 91% 0 mm
03:01 21.6 °C 20.2 °C 1013.8 hPa ESE 3.2 km/h 6.4 km/h 92% 0 mm
03:06 21.5 °C 20.2 °C 1013.8 hPa ESE 4.8 km/h 4.8 km/h 92% 0 mm
03:11 21.4 °C 20.1 °C 1013.8 hPa ESE 4.8 km/h 8 km/h 92% 0 mm
03:16 21.4 °C 20.1 °C 1013.8 hPa ESE 3.2 km/h 4.8 km/h 92% 0 mm
03:21 21.4 °C 20.1 °C 1014.1 hPa SE 3.2 km/h 3.2 km/h 92% 0 mm
03:26 21.3 °C 20 °C 1014.1 hPa SE 1.6 km/h 3.2 km/h 92% 0 mm
03:31 21.3 °C 19.9 °C 1014.1 hPa ESE 3.2 km/h 4.8 km/h 92% 0 mm
03:36 21.3 °C 20 °C 1013.8 hPa ESE 8 km/h 9.7 km/h 92% 0 mm
03:41 21.4 °C 20.1 °C 1014.1 hPa SE 4.8 km/h 8 km/h 92% 0 mm
03:46 21.5 °C 20.2 °C 1014.1 hPa ESE 6.4 km/h 8 km/h 92% 0 mm
03:51 21.6 °C 20.3 °C 1014.1 hPa SE 4.8 km/h 9.7 km/h 92% 0 mm
03:56 21.7 °C 20.3 °C 1014.1 hPa SE 4.8 km/h 8 km/h 92% 0 mm
04:01 21.7 °C 20.2 °C 1014.4 hPa SE 6.4 km/h 9.7 km/h 91% 0 mm
04:06 21.8 °C 20.2 °C 1014.4 hPa SE 3.2 km/h 8 km/h 91% 0 mm
04:11 21.8 °C 20.2 °C 1014.4 hPa SE 9.7 km/h 9.7 km/h 91% 0 mm
04:16 21.8 °C 20.2 °C 1014.4 hPa ESE 6.4 km/h 8 km/h 91% 0 mm
04:21 21.7 °C 20.2 °C 1014.4 hPa SE 4.8 km/h 8 km/h 91% 0 mm
04:26 21.7 °C 20.2 °C 1014.4 hPa SE 4.8 km/h 8 km/h 91% 0 mm
04:31 21.7 °C 20.1 °C 1014.4 hPa ESE 4.8 km/h 8 km/h 91% 0 mm
04:36 21.6 °C 20.1 °C 1014.4 hPa ESE 6.4 km/h 8 km/h 91% 0 mm
04:41 21.6 °C 20.1 °C 1014.4 hPa SE 4.8 km/h 8 km/h 91% 0 mm
04:46 21.4 °C 19.9 °C 1014.8 hPa ESE 6.4 km/h 6.4 km/h 91% 0 mm
04:51 21.4 °C 19.9 °C 1014.8 hPa SE 3.2 km/h 6.4 km/h 91% 0 mm
04:56 21.3 °C 20 °C 1014.8 hPa SE 6.4 km/h 6.4 km/h 92% 0 mm
05:01 21.4 °C 20.1 °C 1015.1 hPa SE 3.2 km/h 8 km/h 92% 0 mm
05:06 21.4 °C 20.1 °C 1015.1 hPa SE 3.2 km/h 6.4 km/h 92% 0 mm
05:11 21.4 °C 20.1 °C 1015.1 hPa East 6.4 km/h 6.4 km/h 92% 0 mm
05:16 21.4 °C 20.1 °C 1015.5 hPa SSE 4.8 km/h 6.4 km/h 92% 0 mm
05:21 21.4 °C 20.1 °C 1015.5 hPa SE 4.8 km/h 8 km/h 92% 0 mm
05:26 21.4 °C 20.1 °C 1015.5 hPa ESE 4.8 km/h 6.4 km/h 92% 0 mm
05:31 21.3 °C 19.9 °C 1015.8 hPa SE 4.8 km/h 8 km/h 92% 0 mm
05:36 21.2 °C 19.9 °C 1015.8 hPa SE 3.2 km/h 6.4 km/h 92% 0 mm
05:41 21.2 °C 19.9 °C 1015.8 hPa SE 4.8 km/h 6.4 km/h 92% 0 mm
05:46 21.2 °C 19.8 °C 1015.8 hPa ESE 4.8 km/h 8 km/h 92% 0 mm
05:51 21.1 °C 19.8 °C 1015.8 hPa SE 4.8 km/h 6.4 km/h 92% 0 mm
05:56 21.1 °C 19.7 °C 1015.8 hPa ESE 3.2 km/h 8 km/h 92% 0 mm
06:01 20.9 °C 19.6 °C 1015.8 hPa ESE 1.6 km/h 6.4 km/h 92% 0 mm
06:06 20.9 °C 19.6 °C 1016.1 hPa SE 4.8 km/h 4.8 km/h 92% 0 mm
06:11 20.8 °C 19.4 °C 1016.1 hPa SE 3.2 km/h 6.4 km/h 92% 0 mm
06:16 20.7 °C 19.4 °C 1016.1 hPa ESE 3.2 km/h 6.4 km/h 92% 0 mm
06:21 20.6 °C 19.3 °C 1016.1 hPa ESE 1.6 km/h 4.8 km/h 92% 0 mm
06:26 20.5 °C 19.2 °C 1016.1 hPa ESE 3.2 km/h 4.8 km/h 92% 0 mm
06:32 20.4 °C 19.3 °C 1016.5 hPa ESE 4.8 km/h 6.4 km/h 93% 0 mm
06:37 20.4 °C 19.2 °C 1016.5 hPa SE 3.2 km/h 4.8 km/h 93% 0 mm
06:42 20.3 °C 19.2 °C 1016.5 hPa SE 3.2 km/h 4.8 km/h 93% 0 mm
06:47 20.4 °C 19.2 °C 1016.8 hPa ESE 3.2 km/h 4.8 km/h 93% 0 mm
06:52 20.4 °C 19.2 °C 1016.8 hPa ESE 3.2 km/h 4.8 km/h 93% 0 mm
06:57 20.3 °C 19.2 °C 1017.2 hPa ESE 3.2 km/h 4.8 km/h 93% 0 mm
07:02 20.4 °C 19.2 °C 1016.8 hPa ESE 1.6 km/h 4.8 km/h 93% 0 mm
07:07 20.4 °C 19.3 °C 1016.8 hPa ESE 3.2 km/h 4.8 km/h 93% 0 mm
07:12 20.5 °C 19.3 °C 1017.2 hPa SE 4.8 km/h 4.8 km/h 93% 0 mm
07:17 20.6 °C 19.4 °C 1017.2 hPa East 1.6 km/h 3.2 km/h 93% 0 mm
07:22 20.8 °C 19.4 °C 1017.2 hPa ESE 3.2 km/h 4.8 km/h 92% 0 mm
07:27 20.9 °C 19.6 °C 1017.2 hPa ESE 1.6 km/h 4.8 km/h 92% 0 mm
07:32 21 °C 19.7 °C 1017.2 hPa SE 3.2 km/h 6.4 km/h 92% 0 mm
07:37 21.2 °C 19.8 °C 1017.2 hPa East 3.2 km/h 6.4 km/h 92% 0 mm
07:42 21.3 °C 20 °C 1017.2 hPa East 4.8 km/h 6.4 km/h 92% 0 mm
07:47 21.5 °C 20.2 °C 1017.2 hPa East 3.2 km/h 9.7 km/h 92% 0 mm
07:52 21.8 °C 20.4 °C 1017.5 hPa East 6.4 km/h 8 km/h 92% 0 mm
07:57 21.8 °C 20.4 °C 1017.5 hPa ESE 9.7 km/h 9.7 km/h 92% 0 mm
08:02 21.8 °C 20.2 °C 1017.5 hPa East 3.2 km/h 9.7 km/h 91% 0 mm
08:07 21.8 °C 20.4 °C 1017.5 hPa SE 4.8 km/h 9.7 km/h 92% 0 mm
08:12 21.8 °C 20.3 °C 1017.5 hPa SE 9.7 km/h 12.9 km/h 91% 0 mm
08:17 21.9 °C 20.4 °C 1017.5 hPa ESE 9.7 km/h 9.7 km/h 91% 0 mm
08:22 22.1 °C 20.6 °C 1017.5 hPa SE 6.4 km/h 12.9 km/h 91% 0 mm
08:27 22.2 °C 20.7 °C 1017.5 hPa East 4.8 km/h 11.3 km/h 91% 0 mm
08:32 22.3 °C 20.6 °C 1017.5 hPa ESE 4.8 km/h 12.9 km/h 90% 0 mm
08:37 22.4 °C 20.7 °C 1017.8 hPa ESE 8 km/h 11.3 km/h 90% 0 mm
08:42 22.4 °C 20.7 °C 1017.8 hPa ESE 8 km/h 12.9 km/h 90% 0 mm
08:47 22.6 °C 20.8 °C 1017.8 hPa SE 3.2 km/h 11.3 km/h 90% 0 mm
08:52 22.8 °C 20.9 °C 1017.8 hPa ESE 11.3 km/h 12.9 km/h 89% 0 mm
08:57 23 °C 21.1 °C 1017.8 hPa SE 14.5 km/h 14.5 km/h 89% 0 mm
09:02 23.1 °C 20.9 °C 1017.8 hPa SE 9.7 km/h 16.1 km/h 88% 0 mm
09:07 23.2 °C 21.1 °C 1017.8 hPa SE 12.9 km/h 14.5 km/h 88% 0 mm
09:12 23.3 °C 21.1 °C 1017.8 hPa SE 12.9 km/h 17.7 km/h 87% 0 mm
09:17 23.5 °C 21 °C 1017.8 hPa ESE 11.3 km/h 16.1 km/h 86% 0 mm
09:22 23.7 °C 21.2 °C 1017.8 hPa SSE 9.7 km/h 16.1 km/h 86% 0 mm
09:27 23.9 °C 21.2 °C 1018.2 hPa ESE 8 km/h 17.7 km/h 85% 0 mm
09:33 24.1 °C 21.1 °C 1018.2 hPa SE 16.1 km/h 16.1 km/h 83% 0 mm
09:38 24.1 °C 21 °C 1018.2 hPa SE 14.5 km/h 17.7 km/h 83% 0 mm
09:43 24.1 °C 20.8 °C 1017.8 hPa ESE 12.9 km/h 20.9 km/h 82% 0 mm
09:48 24.2 °C 20.8 °C 1017.8 hPa ESE 19.3 km/h 22.5 km/h 81% 0 mm
09:53 24.4 °C 20.9 °C 1018.2 hPa SSE 8 km/h 17.7 km/h 81% 0 mm
09:58 24.4 °C 20.8 °C 1017.8 hPa SE 11.3 km/h 22.5 km/h 80% 0 mm
10:03 24.5 °C 20.8 °C 1017.8 hPa ESE 9.7 km/h 17.7 km/h 80% 0 mm
10:08 24.6 °C 20.9 °C 1018.2 hPa SE 8 km/h 16.1 km/h 80% 0 mm
10:13 24.9 °C 20.6 °C 1017.8 hPa SE 19.3 km/h 19.3 km/h 77% 0 mm
10:18 24.8 °C 20.3 °C 1018.2 hPa SE 12.9 km/h 22.5 km/h 76% 0 mm
10:23 24.7 °C 20.4 °C 1017.8 hPa SE 16.1 km/h 22.5 km/h 77% 0 mm
10:28 24.9 °C 20.8 °C 1017.8 hPa SSE 14.5 km/h 20.9 km/h 78% 0 mm
10:33 25.1 °C 21 °C 1017.8 hPa ESE 14.5 km/h 19.3 km/h 78% 0 mm
10:38 25.4 °C 21.3 °C 1017.8 hPa ESE 20.9 km/h 20.9 km/h 78% 0 mm
10:43 25.3 °C 20.7 °C 1017.8 hPa SSE 6.4 km/h 19.3 km/h 76% 0 mm
10:48 25.4 °C 20.5 °C 1017.8 hPa South 19.3 km/h 19.3 km/h 74% 0 mm
10:53 25.6 °C 20.8 °C 1017.8 hPa SSE 17.7 km/h 17.7 km/h 75% 0 mm
10:58 25.7 °C 20.1 °C 1017.8 hPa ESE 14.5 km/h 17.7 km/h 71% 0 mm
11:03 25.8 °C 20.4 °C 1017.8 hPa South 12.9 km/h 17.7 km/h 72% 0 mm
11:08 25.9 °C 20.9 °C 1017.8 hPa ESE 14.5 km/h 20.9 km/h 74% 0 mm
11:13 25.9 °C 21.1 °C 1017.8 hPa SE 9.7 km/h 17.7 km/h 75% 0 mm
11:18 26.1 °C 20.4 °C 1017.8 hPa ESE 17.7 km/h 19.3 km/h 71% 0 mm
11:23 26.1 °C 20.9 °C 1017.5 hPa SSE 11.3 km/h 19.3 km/h 73% 0 mm
11:28 26.2 °C 20.6 °C 1017.5 hPa ESE 12.9 km/h 16.1 km/h 71% 0 mm
11:33 26.4 °C 21 °C 1017.8 hPa SE 12.9 km/h 17.7 km/h 72% 0 mm
11:38 26.3 °C 20.7 °C 1017.5 hPa East 14.5 km/h 20.9 km/h 71% 0 mm
11:43 26.2 °C 21.2 °C 1017.5 hPa SE 8 km/h 17.7 km/h 74% 0 mm
11:48 26.4 °C 20.8 °C 1017.5 hPa East 16.1 km/h 19.3 km/h 71% 0 mm
11:53 26.4 °C 21.6 °C 1017.5 hPa East 8 km/h 14.5 km/h 75% 0 mm
11:58 26.7 °C 21.4 °C 1017.5 hPa SE 20.9 km/h 20.9 km/h 73% 0 mm
12:03 26.8 °C 20.2 °C 1017.5 hPa SE 17.7 km/h 22.5 km/h 67% 0 mm
12:08 26.8 °C 19.9 °C 1017.5 hPa SSE 19.3 km/h 20.9 km/h 66% 0 mm
12:13 26.9 °C 20 °C 1017.5 hPa South 16.1 km/h 19.3 km/h 66% 0 mm
12:18 27 °C 19.9 °C 1017.2 hPa SSE 11.3 km/h 16.1 km/h 65% 0 mm
12:23 27.2 °C 21 °C 1017.2 hPa ESE 12.9 km/h 16.1 km/h 69% 0 mm
12:28 27.4 °C 20.7 °C 1017.5 hPa SE 11.3 km/h 17.7 km/h 67% 0 mm
12:33 27.6 °C 20.9 °C 1017.2 hPa SE 12.9 km/h 17.7 km/h 67% 0 mm
12:38 27.4 °C 20.6 °C 1017.5 hPa SE 11.3 km/h 20.9 km/h 66% 0 mm
12:43 27.4 °C 20.7 °C 1017.2 hPa SE 17.7 km/h 22.5 km/h 67% 0 mm
12:48 27.3 °C 20.7 °C 1017.2 hPa SE 14.5 km/h 19.3 km/h 67% 0 mm
12:53 27.6 °C 21.2 °C 1017.2 hPa East 12.9 km/h 19.3 km/h 68% 0 mm
12:58 27.8 °C 21.4 °C 1017.2 hPa SE 17.7 km/h 17.7 km/h 68% 0 mm
13:03 27.8 °C 20.6 °C 1017.2 hPa SSE 14.5 km/h 17.7 km/h 65% 0 mm
13:08 27.8 °C 19.3 °C 1017.2 hPa SSE 8 km/h 20.9 km/h 60% 0 mm
13:13 27.9 °C 20.5 °C 1017.2 hPa SSW 8 km/h 19.3 km/h 64% 0 mm
13:18 28.1 °C 20.7 °C 1017.2 hPa SE 14.5 km/h 16.1 km/h 64% 0 mm
13:23 28.2 °C 19.7 °C 1017.2 hPa South 16.1 km/h 20.9 km/h 60% 0 mm
13:29 28.2 °C 20.5 °C 1017.2 hPa SE 8 km/h 14.5 km/h 63% 0 mm
13:33 28.2 °C 19.7 °C 1016.8 hPa SE 12.9 km/h 25.7 km/h 60% 0 mm
13:39 28.2 °C 19.7 °C 1017.2 hPa ESE 14.5 km/h 20.9 km/h 60% 0 mm
13:44 28.4 °C 20.4 °C 1017.2 hPa South 4.8 km/h 14.5 km/h 62% 0 mm
13:49 28.6 °C 20.8 °C 1017.2 hPa South 14.5 km/h 19.3 km/h 63% 0 mm
13:54 28.7 °C 21.2 °C 1017.2 hPa SSE 9.7 km/h 14.5 km/h 64% 0 mm
13:59 28.8 °C 20.1 °C 1017.2 hPa ESE 12.9 km/h 17.7 km/h 59% 0 mm
14:04 28.6 °C 20.3 °C 1016.8 hPa SSE 12.9 km/h 17.7 km/h 61% 0 mm
14:09 28.6 °C 20.6 °C 1016.8 hPa SSE 4.8 km/h 17.7 km/h 62% 0 mm
14:14 28.7 °C 20.7 °C 1016.8 hPa SE 25.7 km/h 25.7 km/h 62% 0 mm
14:19 28.6 °C 20.8 °C 1016.8 hPa ESE 8 km/h 16.1 km/h 63% 0 mm
14:24 28.4 °C 20.2 °C 1016.8 hPa SSE 9.7 km/h 16.1 km/h 61% 0 mm
14:29 28.8 °C 21.1 °C 1016.8 hPa SSW 8 km/h 14.5 km/h 63% 0 mm
14:34 28.9 °C 21.2 °C 1016.8 hPa ESE 11.3 km/h 14.5 km/h 63% 0 mm
14:39 28.9 °C 21.2 °C 1016.5 hPa SE 17.7 km/h 19.3 km/h 63% 0 mm
14:44 28.9 °C 21.2 °C 1016.8 hPa SSE 9.7 km/h 17.7 km/h 63% 0 mm
14:49 28.9 °C 20.9 °C 1016.5 hPa South 17.7 km/h 17.7 km/h 62% 0 mm
14:54 28.9 °C 20.6 °C 1016.5 hPa ESE 16.1 km/h 16.1 km/h 61% 0 mm
14:59 29.3 °C 21.2 °C 1016.5 hPa SSE 14.5 km/h 16.1 km/h 62% 0 mm
15:04 29.3 °C 19.6 °C 1016.5 hPa SE 11.3 km/h 19.3 km/h 56% 0 mm
15:09 29.3 °C 20.7 °C 1016.5 hPa SSE 16.1 km/h 19.3 km/h 60% 0 mm
15:14 29.4 °C 20.6 °C 1016.5 hPa SE 17.7 km/h 17.7 km/h 59% 0 mm
15:19 29.5 °C 20.1 °C 1016.1 hPa ESE 16.1 km/h 16.1 km/h 57% 0 mm
15:24 29.6 °C 20.7 °C 1016.1 hPa South 17.7 km/h 17.7 km/h 59% 0 mm
15:29 29.6 °C 20.8 °C 1016.1 hPa SSE 14.5 km/h 17.7 km/h 59% 0 mm
15:34 29.6 °C 20.5 °C 1016.1 hPa ESE 12.9 km/h 16.1 km/h 58% 0 mm
15:39 29.8 °C 21.2 °C 1016.1 hPa South 11.3 km/h 14.5 km/h 60% 0 mm
15:44 29.7 °C 20.9 °C 1016.1 hPa SSE 8 km/h 12.9 km/h 59% 0 mm
15:49 29.8 °C 20.1 °C 1016.1 hPa SSE 8 km/h 14.5 km/h 56% 0 mm
15:54 29.9 °C 21 °C 1016.1 hPa SSE 17.7 km/h 17.7 km/h 59% 0 mm
15:59 29.7 °C 20 °C 1016.1 hPa SE 16.1 km/h 16.1 km/h 56% 0 mm
16:04 29.8 °C 20.3 °C 1016.1 hPa SSW 16.1 km/h 16.1 km/h 57% 0 mm
16:09 29.8 °C 19.5 °C 1015.8 hPa SE 9.7 km/h 16.1 km/h 54% 0 mm
16:14 29.9 °C 20.2 °C 1015.8 hPa SSW 4.8 km/h 9.7 km/h 56% 0 mm
16:19 30.1 °C 20.1 °C 1016.1 hPa SE 12.9 km/h 14.5 km/h 55% 0 mm
16:24 29.9 °C 19.6 °C 1016.1 hPa SE 14.5 km/h 14.5 km/h 54% 0 mm
16:29 30 °C 20 °C 1015.8 hPa SSW 12.9 km/h 14.5 km/h 55% 0 mm
16:34 30.3 °C 20.6 °C 1016.1 hPa SSW 9.7 km/h 9.7 km/h 56% 0 mm
16:39 30.4 °C 20.6 °C 1015.8 hPa SSW 8 km/h 14.5 km/h 56% 0 mm
16:44 30.3 °C 20.2 °C 1015.8 hPa SE 11.3 km/h 17.7 km/h 55% 0 mm
16:49 30.2 °C 20.7 °C 1015.8 hPa SSE 12.9 km/h 17.7 km/h 57% 0 mm
16:54 30.2 °C 19.9 °C 1016.1 hPa SE 8 km/h 14.5 km/h 54% 0 mm
16:59 30.3 °C 19.9 °C 1015.8 hPa SW 6.4 km/h 9.7 km/h 54% 0 mm
17:04 30.4 °C 20.3 °C 1015.8 hPa SW 11.3 km/h 12.9 km/h 55% 0 mm
17:09 30.3 °C 20.6 °C 1015.8 hPa ESE 9.7 km/h 14.5 km/h 56% 0 mm
17:14 30.3 °C 20.6 °C 1016.1 hPa SSE 4.8 km/h 12.9 km/h 56% 0 mm
17:19 30.4 °C 20.6 °C 1016.1 hPa ESE 6.4 km/h 11.3 km/h 56% 0 mm
17:24 30.2 °C 19.8 °C 1015.8 hPa ESE 9.7 km/h 17.7 km/h 54% 0 mm
17:29 30.1 °C 19.8 °C 1015.8 hPa SE 11.3 km/h 12.9 km/h 54% 0 mm
17:34 30.2 °C 19.6 °C 1015.8 hPa SSE 8 km/h 16.1 km/h 53% 0 mm
17:39 30.2 °C 19.3 °C 1015.8 hPa SE 6.4 km/h 11.3 km/h 52% 0 mm
17:44 30.3 °C 20.6 °C 1015.8 hPa SSE 8 km/h 8 km/h 56% 0 mm
17:50 30.6 °C 20.5 °C 1015.8 hPa SE 11.3 km/h 12.9 km/h 55% 0 mm
17:55 30.3 °C 20 °C 1015.8 hPa East 6.4 km/h 14.5 km/h 54% 0 mm
18:00 30.2 °C 20.8 °C 1015.8 hPa SE 3.2 km/h 12.9 km/h 57% 0 mm
18:05 30.4 °C 19.7 °C 1015.8 hPa South 4.8 km/h 6.4 km/h 53% 0 mm
18:10 30.6 °C 19.9 °C 1015.8 hPa SSE 3.2 km/h 9.7 km/h 53% 0 mm
18:15 30.8 °C 21 °C 1015.8 hPa SSW 4.8 km/h 8 km/h 56% 0 mm
18:20 30.9 °C 20.5 °C 1015.8 hPa SSE 4.8 km/h 12.9 km/h 54% 0 mm
18:25 30.6 °C 19.6 °C 1015.8 hPa SE 12.9 km/h 14.5 km/h 52% 0 mm
18:30 30.4 °C 20.4 °C 1015.8 hPa SSW 8 km/h 16.1 km/h 55% 0 mm
18:35 30.4 °C 20.3 °C 1015.8 hPa SSE 9.7 km/h 9.7 km/h 55% 0 mm
18:40 30.3 °C 19.4 °C 1015.8 hPa SSE 8 km/h 11.3 km/h 52% 0 mm
18:45 30.3 °C 20 °C 1015.8 hPa West 1.6 km/h 8 km/h 54% 0 mm
18:50 30.4 °C 20.1 °C 1015.8 hPa SSW 3.2 km/h 8 km/h 54% 0 mm
18:55 30.6 °C 20.2 °C 1015.8 hPa SE 4.8 km/h 6.4 km/h 54% 0 mm
19:00 30.6 °C 20.2 °C 1015.8 hPa South 3.2 km/h 6.4 km/h 54% 0 mm
19:05 30.5 °C 20.2 °C 1015.8 hPa SE 8 km/h 9.7 km/h 54% 0 mm
19:10 30.3 °C 20.3 °C 1015.5 hPa SSE 4.8 km/h 9.7 km/h 55% 0 mm
19:15 30.2 °C 19.6 °C 1015.8 hPa SSE 8 km/h 9.7 km/h 53% 0 mm
19:20 30.3 °C 19.9 °C 1015.8 hPa South 6.4 km/h 6.4 km/h 54% 0 mm
19:25 30.3 °C 20 °C 1015.8 hPa SSE 3.2 km/h 6.4 km/h 54% 0 mm
19:30 30.2 °C 20.1 °C 1015.8 hPa SSE 4.8 km/h 9.7 km/h 55% 0 mm
19:35 30.1 °C 20.1 °C 1015.8 hPa SSE 3.2 km/h 6.4 km/h 55% 0 mm
19:40 30.1 °C 20.1 °C 1015.8 hPa SSE 4.8 km/h 8 km/h 55% 0 mm
19:45 29.8 °C 20.1 °C 1015.8 hPa SSE 8 km/h 8 km/h 56% 0 mm
19:50 29.8 °C 20.3 °C 1015.8 hPa SSE 4.8 km/h 8 km/h 57% 0 mm
19:55 29.7 °C 19.9 °C 1015.8 hPa SSE 4.8 km/h 4.8 km/h 56% 0 mm
20:00 29.6 °C 20.5 °C 1015.8 hPa SE 6.4 km/h 6.4 km/h 58% 0 mm
20:05 29.3 °C 20.5 °C 1015.8 hPa SSE 4.8 km/h 6.4 km/h 59% 0 mm
20:10 29.1 °C 20.8 °C 1015.8 hPa SSE 3.2 km/h 4.8 km/h 61% 0 mm
20:15 28.9 °C 20.9 °C 1015.8 hPa SE 4.8 km/h 4.8 km/h 62% 0 mm
20:20 28.8 °C 20.8 °C 1015.8 hPa SSE 3.2 km/h 4.8 km/h 62% 0 mm
20:25 28.6 °C 20.6 °C 1015.8 hPa SSE 3.2 km/h 6.4 km/h 62% 0 mm
20:30 28.3 °C 20.9 °C 1016.1 hPa SE 3.2 km/h 4.8 km/h 64% 0 mm
20:35 28.2 °C 20.7 °C 1016.1 hPa SE 3.2 km/h 4.8 km/h 64% 0 mm
20:40 27.9 °C 20.8 °C 1016.1 hPa SE 3.2 km/h 4.8 km/h 65% 0 mm
20:45 27.7 °C 20.7 °C 1016.1 hPa SSE 1.6 km/h 3.2 km/h 66% 0 mm
20:51 27.3 °C 20.6 °C 1016.1 hPa SE 3.2 km/h 3.2 km/h 67% 0 mm
20:56 27.1 °C 20.4 °C 1016.1 hPa SSE 1.6 km/h 3.2 km/h 67% 0 mm
21:01 26.7 °C 20.3 °C 1016.1 hPa SE 1.6 km/h 1.6 km/h 68% 0 mm
21:06 26.4 °C 20.3 °C 1016.1 hPa Calm   1.6 km/h 69% 0 mm
21:11 26.2 °C 20.3 °C 1016.1 hPa Calm     70% 0 mm
21:16 26 °C 20.3 °C 1016.1 hPa SE 1.6 km/h 1.6 km/h 71% 0 mm
21:21 25.9 °C 20.3 °C 1016.1 hPa SE 1.6 km/h 3.2 km/h 71% 0 mm
21:26 25.9 °C 20.2 °C 1016.1 hPa ESE 6.4 km/h 6.4 km/h 71% 0 mm
21:31 25.9 °C 20.2 °C 1016.1 hPa ESE 4.8 km/h 4.8 km/h 71% 0 mm
21:36 25.9 °C 20.2 °C 1016.1 hPa SE 3.2 km/h 4.8 km/h 71% 0 mm
21:41 25.8 °C 20.1 °C 1016.1 hPa ESE 4.8 km/h 6.4 km/h 71% 0 mm
21:46 25.5 °C 20.3 °C 1016.1 hPa ESE 9.7 km/h 9.7 km/h 73% 0 mm
21:51 25.1 °C 20.4 °C 1016.1 hPa ESE 6.4 km/h 9.7 km/h 75% 0 mm
21:56 24.8 °C 20.5 °C 1016.1 hPa SE 4.8 km/h 6.4 km/h 77% 0 mm
22:01 24.8 °C 20.5 °C 1016.5 hPa Calm   3.2 km/h 77% 0 mm
22:06 24.7 °C 20.4 °C 1016.5 hPa East 1.6 km/h 1.6 km/h 77% 0 mm
22:11 24.7 °C 20.6 °C 1016.8 hPa East 1.6 km/h 1.6 km/h 78% 0 mm
22:16 24.6 °C 20.5 °C 1016.8 hPa East 1.6 km/h 3.2 km/h 78% 0 mm
22:21 24.5 °C 20.4 °C 1016.5 hPa ESE 1.6 km/h 3.2 km/h 78% 0 mm
22:26 24.4 °C 20.3 °C 1016.8 hPa ESE 3.2 km/h 4.8 km/h 78% 0 mm
22:31 24.3 °C 20.3 °C 1016.8 hPa ESE 3.2 km/h 6.4 km/h 78% 0 mm
22:36 24.2 °C 20.1 °C 1016.8 hPa ESE 3.2 km/h 4.8 km/h 78% 0 mm
22:41 24.1 °C 20.1 °C 1016.8 hPa Calm   1.6 km/h 78% 0 mm
22:46 23.9 °C 20.1 °C 1017.2 hPa SE 1.6 km/h 1.6 km/h 79% 0 mm
22:51 23.9 °C 20.1 °C 1017.2 hPa ESE 1.6 km/h 3.2 km/h 79% 0 mm
22:56 23.9 °C 20.1 °C 1017.2 hPa Calm   1.6 km/h 79% 0 mm
23:01 23.8 °C 20.1 °C 1017.2 hPa ESE 1.6 km/h 3.2 km/h 80% 0 mm
23:06 23.7 °C 20 °C 1017.2 hPa SE 1.6 km/h 3.2 km/h 80% 0 mm
23:11 23.6 °C 20.1 °C 1017.2 hPa SE 1.6 km/h 3.2 km/h 81% 0 mm
23:16 23.4 °C 20 °C 1017.2 hPa SE 3.2 km/h 3.2 km/h 81% 0 mm
23:21 23.5 °C 20.1 °C 1016.8 hPa SE 3.2 km/h 3.2 km/h 81% 0 mm
23:26 23.6 °C 19.9 °C 1017.2 hPa SE 4.8 km/h 6.4 km/h 80% 0 mm
23:31 23.5 °C 19.8 °C 1017.2 hPa ESE 6.4 km/h 6.4 km/h 80% 0 mm
23:36 23.4 °C 19.8 °C 1017.2 hPa ESE 8 km/h 8 km/h 80% 0 mm
23:41 23.5 °C 19.8 °C 1017.2 hPa SE 8 km/h 9.7 km/h 80% 0 mm
23:46 23.4 °C 19.8 °C 1017.2 hPa SE 8 km/h 9.7 km/h 80% 0 mm
23:51 23.3 °C 19.9 °C 1017.5 hPa ESE 6.4 km/h 8 km/h 81% 0 mm
23:56 23.2 °C 19.8 °C 1017.5 hPa SE 6.4 km/h 9.7 km/h 81% 0 mm
Compliments of Weather Underground